Wind_Speed
31 30 28 27 26 25 25 26 29 32 35 36 40 44 43 40 36 33 32 33 37 42 41 37 33 26 22 23 25 29 29 26 27 29 29 29 29 26 23 23 27 30 28 27 27 25 25 25 24 24 25 26 27 27 28 28 28 27 25 25 25 23 24 32 38 37 34 34 34 33 36 42 45 43 40 36 30 29 31 30 26 24 25 25 23 22 21
28 30 30 31 31 31 29 29 29 30 34 37 38 40 40 41 43 41 35 32 34 37 39 42 41 36 32 29 26 28 30 30 31 31 29 29 29 28 25 25 29 30 26 25 25 25 26 25 24 25 25 26 26 25 25 25 25 26 26 27 26 24 26 33 38 38 37 39 42 39 37 40 39 34 32 29 28 30 31 27 23 20 17 17 18 22 25
25 29 33 33 33 34 32 33 33 32 33 35 38 39 38 39 42 42 40 39 37 34 32 36 39 38 37 36 33 30 30 32 32 32 31 31 30 28 26 27 30 31 29 26 24 25 27 26 26 27 27 27 27 25 25 25 25 26 28 28 27 27 29 32 34 35 35 37 39 37 33 33 32 29 27 26 25 26 23 19 17 15 13 14 17 22 27
21 25 30 33 34 35 36 36 35 34 35 35 36 37 36 37 39 38 41 44 43 36 31 32 35 36 36 37 36 33 32 34 36 35 34 31 30 27 25 27 31 34 33 28 24 25 27 28 28 29 29 29 29 28 27 27 27 28 28 28 29 30 31 30 29 29 30 31 31 31 29 29 30 29 27 25 24 25 23 20 19 17 14 14 16 20 24
17 16 20 27 30 30 33 36 36 35 36 36 36 36 35 34 35 35 38 41 39 34 32 34 36 36 36 38 39 37 35 35 38 38 34 31 31 30 27 28 31 35 38 32 27 28 31 31 31 31 31 32 31 30 29 28 28 28 28 28 29 30 29 27 28 30 31 32 31 31 30 29 29 28 26 25 24 24 23 22 22 20 17 15 17 20 23
14 12 14 18 19 20 25 31 33 34 36 37 36 38 37 34 33 32 31 30 29 29 30 32 32 32 34 38 41 40 38 37 38 39 36 33 35 35 32 29 29 35 40 36 31 32 34 33 33 34 33 33 32 31 30 29 29 29 28 28 29 29 29 29 30 32 32 33 33 32 29 27 25 24 22 21 20 20 19 20 21 20 18 17 18 21 23
14 13 13 13 14 19 24 25 27 31 35 36 37 37 38 36 35 34 31 27 24 23 24 25 26 28 31 34 37 39 39 39 40 40 37 35 36 36 34 31 28 32 38 36 34 36 37 34 34 35 34 34 33 32 32 32 32 31 30 30 30 30 31 32 32 32 32 32 30 28 24 22 21 22 21 19 16 15 16 17 17 17 17 17 18 21 22
14 14 14 13 13 19 24 24 25 27 28 31 34 36 37 37 36 35 34 32 28 24 23 24 25 26 26 27 31 36 39 40 42 41 39 37 37 36 35 31 28 30 34 36 38 40 39 37 36 35 35 35 35 34 34 35 35 35 33 32 32 32 32 32 31 30 28 26 24 21 19 19 19 20 20 17 12 11 12 13 14 15 16 16 17 19 20
13 13 15 14 15 19 24 24 22 22 24 27 30 33 34 34 35 36 34 33 31 28 28 31 29 26 25 26 29 35 38 40 41 42 41 41 38 37 36 32 29 32 35 38 41 41 40 39 37 36 36 36 35 35 35 36 36 36 36 35 34 33 32 31 30 27 23 21 18 16 16 17 19 20 18 14 10 9 11 13 16 17 16 14 15 16 19
12 10 10 10 12 15 18 18 18 20 24 28 29 31 32 30 31 34 35 34 32 31 33 36 31 27 28 29 29 35 40 40 41 43 44 43 39 37 38 35 31 34 38 39 39 39 40 40 39 38 37 35 35 36 36 37 37 37 36 35 34 32 30 28 26 23 20 18 16 14 15 17 18 18 15 12 12 13 15 18 19 17 14 13 14 14 16
18 14 9 8 11 12 10 11 16 19 22 26 27 29 33 33 31 32 33 34 35 35 36 36 32 30 31 29 29 35 38 39 40 42 43 44 40 37 39 38 35 36 38 35 33 36 41 41 40 40 38 37 37 39 39 39 39 38 36 35 32 29 27 25 23 21 19 17 15 14 17 18 19 18 17 16 16 17 18 18 17 14 12 12 13 12 13
22 19 14 11 13 15 13 14 16 16 17 20 22 21 25 32 35 35 34 33 33 33 32 32 31 32 31 29 30 34 35 34 35 35 38 42 40 38 39 40 38 38 37 32 30 37 42 42 42 42 40 39 40 41 41 41 40 38 36 33 29 26 24 22 20 18 16 15 15 18 20 20 20 20 21 21 19 17 17 17 15 13 12 11 11 9 10
23 22 19 15 13 16 18 19 19 19 17 17 19 20 20 24 28 32 33 32 31 30 29 31 34 34 32 31 32 34 33 32 31 31 34 36 36 36 38 39 38 38 36 31 32 39 43 43 42 42 42 41 41 40 40 40 39 38 36 32 27 22 19 17 16 17 18 19 22 23 23 23 23 23 22 21 19 17 16 15 14 12 10 9 7 7 7
22 21 20 15 12 15 19 20 21 21 17 14 17 21 22 21 21 25 31 33 32 31 31 33 35 33 31 31 33 34 33 32 32 32 33 34 33 34 35 35 34 35 34 33 35 40 44 44 43 43 42 40 38 37 36 36 37 37 35 30 24 18 15 16 19 22 24 26 27 26 25 26 26 24 23 21 19 18 17 16 13 9 6 6 5 5 6
20 18 15 10 9 12 17 18 18 15 13 16 17 19 21 20 19 23 31 35 35 35 34 34 32 31 30 31 33 33 32 31 31 30 30 30 29 30 30 29 29 30 33 36 39 42 43 43 42 42 41 37 34 33 32 32 32 32 31 27 22 19 20 23 27 28 28 28 28 27 27 28 26 24 22 20 18 17 16 13 10 6 4 4 4 4 6
21 18 17 15 16 17 18 22 23 19 18 21 19 16 17 18 19 25 32 35 35 33 33 33 32 30 30 29 28 27 26 25 26 25 24 24 25 26 28 29 31 33 35 39 41 42 41 40 39 39 38 37 36 33 30 28 26 25 25 26 27 28 29 29 30 30 30 30 28 27 27 26 24 21 20 18 17 15 13 10 7 6 5 4 4 4 5
29 25 23 23 23 21 23 27 29 25 22 24 20 15 15 19 22 26 30 32 32 32 33 34 33 31 29 27 27 28 27 27 28 28 30 30 31 32 33 34 35 36 36 37 38 38 37 37 37 37 36 35 36 33 29 24 22 22 24 26 28 30 31 32 33 33 32 29 27 26 26 24 21 18 17 17 16 14 11 9 8 7 6 6 5 6 6
34 28 26 24 19 19 23 21 17 17 19 20 19 16 18 21 24 27 29 31 32 33 34 34 32 31 31 33 33 33 32 33 33 33 33 34 34 35 36 37 37 37 36 36 36 36 35 34 33 33 33 31 30 30 29 26 24 24 25 24 25 26 29 32 31 29 27 26 26 27 27 24 20 17 15 15 14 12 10 9 9 8 7 7 6 7 8
27 23 25 24 17 14 13 13 16 19 19 18 19 22 26 28 30 32 33 33 34 35 35 35 35 36 38 39 39 38 37 37 37 36 35 34 35 35 36 36 35 35 34 34 33 32 31 30 29 29 30 29 27 28 29 27 25 24 23 23 25 27 30 30 28 26 25 26 28 28 26 22 18 17 16 15 14 13 11 10 10 9 8 8 7 8 10
21 20 23 22 16 15 22 26 25 26 29 30 29 29 29 29 31 33 34 34 33 34 35 36 37 39 39 40 40 38 37 36 36 36 35 34 33 33 32 31 29 29 29 27 26 25 24 23 23 23 23 24 24 24 24 23 22 22 24 26 28 29 30 28 27 27 27 27 28 26 22 20 19 19 18 16 15 13 12 12 12 11 10 9 10 11 12
21 23 23 21 19 23 27 25 24 28 29 29 30 30 27 25 25 26 27 27 27 29 31 31 33 36 38 38 37 35 32 31 32 33 32 31 29 28 27 25 23 22 22 21 21 21 20 19 19 19 19 20 21 21 21 21 23 26 28 29 29 29 27 24 24 26 26 26 25 23 20 20 21 21 19 17 16 14 14 15 14 13 12 12 12 13 15
22 25 24 23 23 25 24 20 22 27 28 27 28 28 27 26 24 21 20 20 20 21 22 22 23 26 29 31 31 29 26 25 25 26 26 26 25 23 22 22 21 20 21 21 21 20 20 19 19 19 20 21 22 23 25 27 29 30 31 30 27 25 22 22 23 24 24 23 21 19 18 20 22 23 21 19 17 16 17 17 15 14 13 13 13 14 16
20 24 24 24 27 29 25 17 16 20 24 26 27 27 27 27 24 21 20 18 16 18 18 17 16 17 18 20 21 20 18 17 18 19 20 21 22 20 19 20 20 20 21 21 21 20 20 20 20 21 22 22 24 26 28 30 31 31 29 27 25 23 21 21 22 22 20 19 18 18 18 20 23 25 23 20 18 17 17 16 14 13 13 12 12 13 15
21 25 28 29 32 31 24 14 10 13 19 22 24 24 22 20 18 18 17 15 13 14 15 14 13 13 14 14 15 15 15 16 16 17 18 19 19 18 17 18 19 20 22 23 23 22 21 21 22 22 22 23 25 27 29 29 29 28 27 25 23 22 21 22 22 21 19 17 17 17 17 19 22 25 23 21 20 19 17 15 13 12 12 12 12 13 15
22 29 34 35 35 30 22 16 16 14 14 14 13 12 11 10 9 9 9 9 9 10 11 11 11 12 12 12 13 13 14 14 15 16 16 16 17 17 17 17 17 18 20 22 23 22 22 22 22 22 23 24 26 27 27 26 25 24 23 22 22 21 21 22 22 20 18 17 16 16 16 17 20 21 22 22 21 20 17 15 14 14 14 14 14 15 16
24 33 38 37 35 29 22 19 21 21 16 11 9 8 7 7 6 7 8 9 10 10 10 10 12 13 13 12 11 11 11 11 12 13 15 17 17 18 18 18 19 19 20 20 21 21 22 22 21 22 23 23 24 24 22 21 20 19 19 19 19 20 21 21 21 19 17 16 15 14 14 15 17 18 19 20 20 18 17 15 15 16 16 17 17 17 18
28 35 36 33 29 26 23 21 22 23 20 16 15 14 12 11 13 13 12 12 12 12 11 10 11 13 14 13 12 9 9 10 11 12 14 16 16 17 18 18 20 21 21 20 20 20 20 20 21 21 22 21 21 19 17 17 17 17 18 18 19 20 20 20 19 18 16 15 15 14 14 14 15 17 18 18 17 16 15 14 15 16 17 18 19 19 19
27 32 34 31 27 27 28 26 24 24 22 19 18 17 16 16 17 15 13 12 13 13 12 10 9 10 12 13 13 11 11 11 12 13 13 14 15 15 16 16 17 18 19 19 18 18 18 18 18 19 19 19 18 16 15 17 18 19 19 20 20 20 20 20 19 18 17 16 16 16 15 15 15 17 18 18 16 15 14 13 14 15 17 19 20 21 21
22 25 27 28 28 28 29 29 28 26 24 22 22 21 19 15 12 9 6 7 7 8 9 9 9 10 11 12 13 14 13 12 13 14 14 14 15 15 15 15 15 15 16 16 15 15 15 16 17 17 17 17 16 15 17 19 21 21 22 22 22 22 22 22 21 19 19 19 18 17 17 16 16 18 19 18 16 15 14 14 14 17 20 22 23 23 25
22 21 22 24 27 28 26 25 23 21 19 16 15 16 14 9 4 2 3 5 5 5 6 8 9 10 11 11 11 12 12 12 14 14 14 15 15 15 15 15 15 15 15 15 15 15 15 16 16 16 16 16 16 17 19 21 23 23 23 23 23 23 22 21 20 20 20 19 17 16 17 17 18 18 18 17 17 16 16 16 17 20 23 24 25 26 28
25 23 21 21 22 21 19 17 17 18 16 13 11 11 9 4 1 4 7 8 7 7 8 10 10 12 12 12 13 13 14 15 16 16 17 18 18 17 17 17 16 16 16 16 15 15 15 16 16 15 16 17 18 18 20 22 24 24 24 24 25 25 23 20 18 18 17 16 16 17 18 18 18 18 18 17 18 18 18 19 21 23 24 24 26 28 28
22 21 20 20 19 19 19 18 17 16 14 10 8 7 4 2 6 9 10 11 11 12 14 15 16 16 16 16 16 16 17 18 18 18 19 19 19 19 18 18 18 17 16 15 15 15 16 16 16 17 18 18 19 20 21 24 25 26 26 26 27 26 23 20 19 18 17 16 17 17 16 16 16 17 17 18 19 20 21 22 23 24 25 26 27 28 28
18 18 17 17 16 16 15 13 10 8 6 4 2 0 2 7 10 11 13 14 15 16 17 18 18 18 18 18 18 18 18 18 19 19 20 20 20 19 19 19 19 18 17 16 15 15 15 15 17 19 20 20 21 21 22 24 25 26 26 25 25 25 23 20 19 19 18 18 18 17 17 17 17 18 19 19 19 20 21 23 24 25 25 26 27 28 28
19 18 15 13 11 9 8 8 8 7 6 5 6 7 8 11 12 14 15 16 16 17 17 17 17 18 17 17 18 19 19 19 20 20 20 21 21 20 20 20 20 19 18 16 15 14 13 14 17 19 21 21 21 22 22 24 25 25 25 25 26 25 23 20 19 18 18 19 19 21 22 23 23 23 23 21 20 21 23 23 24 25 26 27 28 28 28
16 14 12 10 9 8 8 8 9 9 9 10 11 12 14 16 16 16 16 16 16 16 16 16 17 17 17 18 18 19 20 20 21 21 21 21 21 20 20 20 20 20 19 18 16 15 14 15 17 20 22 23 23 22 23 24 25 25 25 25 26 25 23 20 19 19 19 20 21 23 25 27 28 28 27 25 24 27 27 25 24 25 26 27 28 27 26
10 9 8 8 7 7 7 7 8 10 11 13 14 15 16 17 17 17 17 17 16 16 16 16 16 16 17 17 18 18 19 20 20 20 21 21 20 20 20 19 19 20 20 19 18 18 17 17 18 21 23 24 23 23 24 25 25 24 24 24 25 24 23 21 20 20 21 22 22 23 25 26 26 26 26 26 27 29 28 26 25 26 27 28 27 26 25
8 6 4 4 6 7 8 9 10 11 11 12 13 14 14 15 15 14 14 14 13 13 14 14 14 15 15 15 16 16 17 17 17 16 16 16 15 15 15 15 16 17 17 17 18 19 19 18 19 22 24 25 24 24 24 25 25 24 24 24 24 24 23 22 20 21 23 23 23 23 24 25 25 24 25 26 27 28 27 26 27 28 28 28 27 26 24
7 4 2 3 5 7 9 10 11 10 10 10 10 10 10 10 10 9 9 9 9 9 9 10 10 11 11 12 12 12 12 12 11 10 9 9 7 7 7 7 8 9 11 13 15 17 19 20 21 22 24 25 25 24 24 24 24 24 25 24 24 23 23 22 22 23 24 24 23 23 24 25 24 23 22 22 23 25 26 27 29 29 28 26 24 23 22
6 5 4 4 5 6 7 8 8 8 7 7 7 7 6 6 5 5 5 5 5 6 6 6 6 6 6 7 7 8 8 8 8 6 5 4 3 2 1 2 4 5 8 10 11 14 18 20 21 22 23 24 24 24 24 24 24 24 24 24 24 25 25 26 26 27 26 24 23 23 23 22 21 20 20 21 22 24 26 27 27 27 25 23 22 22 21
7 8 7 6 6 5 5 5 5 5 5 6 6 6 6 6 6 6 7 7 8 8 8 7 8 8 8 9 9 9 9 9 8 6 5 4 3 3 2 1 3 5 6 8 9 11 14 17 19 21 22 23 23 24 24 24 25 25 24 24 24 25 26 27 26 23 21 18 18 19 20 19 19 20 21 22 22 23 24 24 24 24 23 22 22 21 20
9 9 9 8 8 8 7 6 6 5 5 5 6 6 6 6 7 7 7 8 9 9 8 8 8 8 8 7 7 8 9 8 7 6 4 3 3 3 3 1 2 4 5 7 8 9 11 13 15 16 18 19 20 21 21 20 20 19 19 18 18 18 19 19 18 17 16 16 17 18 19 19 20 21 22 22 22 22 23 23 22 22 22 21 20 20 20
9 9 9 9 9 9 9 9 8 6 5 5 5 5 5 6 6 6 7 7 8 8 8 8 8 7 6 5 5 6 7 6 7 7 6 5 4 4 3 3 4 4 4 5 6 7 9 10 11 12 13 14 14 14 15 15 15 15 15 14 14 14 15 15 16 17 18 18 19 19 19 20 20 20 20 21 21 21 21 22 21 20 20 20 20 20 20
8 8 8 7 8 8 9 9 8 7 6 5 5 5 5 5 6 6 7 7 7 7 7 8 8 8 7 5 5 6 6 5 6 7 7 6 6 6 5 5 5 5 5 4 4 4 6 8 9 10 11 11 11 12 13 14 14 14 14 14 14 14 15 17 18 19 19 19 18 18 18 19 18 18 19 20 20 18 18 19 20 19 20 21 22 22 22
7 7 7 6 6 7 7 7 7 7 6 5 5 5 5 5 6 6 7 7 7 7 7 7 7 7 6 5 4 4 3 3 4 4 4 5 5 5 5 5 5 5 5 4 3 2 3 5 7 8 9 10 11 11 11 12 12 13 13 14 15 16 17 18 18 19 19 18 18 17 17 17 17 17 18 20 20 19 19 20 21 21 21 22 22 23 23
8 7 7 6 6 6 6 6 6 6 5 4 4 4 3 4 4 5 6 7 7 7 7 6 6 5 4 4 3 2 2 2 3 2 2 1 2 2 3 2 2 1 1 2 2 3 4 5 6 7 7 8 9 10 11 11 12 13 14 15 15 16 16 16 17 17 17 17 17 16 16 17 17 18 19 20 21 21 21 22 22 22 22 22 23 23 23
10 10 9 8 7 7 6 6 5 5 4 4 4 4 4 4 5 5 6 6 6 6 5 5 4 4 4 3 3 3 3 3 3 3 2 2 2 3 3 3 2 2 2 1 2 4 5 7 7 8 8 9 10 10 11 12 13 14 14 15 15 16 16 16 16 16 16 16 16 16 17 17 18 19 20 21 21 22 23 23 22 22 22 23 22 22 22
9 10 10 10 10 9 8 7 6 5 4 5 5 5 5 5 5 5 5 5 5 4 4 4 4 4 3 3 3 2 2 3 3 4 4 4 4 4 6 6 5 4 3 3 4 6 7 8 9 9 9 10 10 11 11 12 13 14 14 15 15 15 16 16 16 16 16 16 16 17 17 18 19 19 21 21 22 22 23 23 23 23 22 22 22 21 21
10 10 10 11 11 10 8 7 6 5 5 6 6 6 6 6 6 5 5 5 5 4 4 5 6 6 5 6 6 5 4 5 6 6 7 6 6 6 7 8 8 7 6 6 7 8 9 10 10 10 10 11 11 12 12 13 13 14 14 15 15 15 15 16 16 17 17 18 18 18 18 19 19 20 21 22 22 23 24 23 23 23 23 22 21 21 20
12 11 10 10 10 9 9 8 7 6 6 7 7 7 6 6 6 6 6 6 6 6 6 6 7 7 6 6 7 6 5 6 8 9 10 10 10 11 11 12 12 12 11 10 10 11 12 13 13 13 13 13 13 14 14 14 14 15 15 15 15 16 16 17 17 18 18 19 19 19 20 20 21 22 22 22 22 23 24 25 25 25 24 23 22 22 21
12 11 10 10 10 11 11 9 7 6 6 7 7 7 6 6 6 7 8 7 7 7 6 5 6 7 6 6 6 6 6 7 9 10 10 10 11 12 13 14 14 15 14 14 14 14 16 16 16 15 15 14 14 15 16 16 16 16 17 16 16 17 18 18 19 19 20 20 21 21 22 22 23 24 24 24 24 25 26 26 27 27 25 23 22 22 21
10 11 11 10 10 10 10 10 9 8 7 6 6 6 6 5 5 6 7 6 6 7 6 5 5 6 6 6 6 7 7 8 8 9 10 10 10 11 12 13 13 13 13 13 13 14 15 16 16 17 16 15 13 14 17 18 19 20 20 20 20 20 20 21 21 21 22 22 22 23 24 25 25 25 25 25 25 25 25 25 25 24 23 22 22 21 21
7 8 9 10 9 8 9 10 11 10 9 7 6 6 5 4 4 5 6 7 6 6 6 6 6 5 5 6 7 8 8 9 9 9 10 11 11 11 11 11 11 11 12 12 12 13 14 15 15 15 15 14 14 15 17 19 19 20 21 21 20 20 20 20 20 20 21 21 21 22 22 23 22 22 21 21 21 21 21 21 21 20 19 19 19 20 20
Wind_Direction
230 232 233 231 230 231 230 228 226 223 222 224 227 230 230 230 233 237 233 230 234 234 233 233 232 232 241 246 246 246 249 255 255 251 249 248 248 253 255 240 217 209 208 204 203 207 212 216 217 215 219 223 226 228 227 224 226 228 233 238 241 247 248 246 250 256 258 256 256 264 268 259 249 249 257 267 279 291 301 309 309 306 307 301 286 278 280
236 235 236 235 236 236 234 233 233 230 226 226 228 231 232 233 235 239 238 235 235 233 232 234 237 241 246 250 252 249 249 252 249 247 252 254 253 252 251 235 215 209 209 202 201 206 209 213 216 213 217 223 225 227 225 224 227 229 232 235 238 241 240 240 245 251 254 255 257 263 271 270 268 270 274 281 294 301 298 297 302 312 315 302 285 280 279
240 237 236 236 237 237 236 235 234 234 233 231 229 230 231 233 236 238 238 240 240 235 232 235 239 242 244 247 249 248 248 248 246 249 255 258 259 255 248 237 222 212 206 203 206 210 210 213 217 216 218 223 224 224 224 224 225 226 228 231 233 235 237 239 243 249 254 257 257 261 268 274 279 283 284 285 294 303 303 293 295 310 318 306 288 278 275
240 236 233 234 236 237 238 235 232 231 233 233 232 231 229 230 232 234 235 238 240 236 234 235 238 239 240 242 244 245 247 247 247 251 253 255 260 255 242 236 228 214 205 208 216 215 211 214 218 219 220 222 221 221 222 223 223 223 225 228 228 231 237 243 247 251 256 260 262 265 270 276 282 284 284 284 287 295 301 300 299 302 305 303 293 285 281
240 239 233 233 235 237 236 233 230 230 230 232 234 233 232 230 230 231 233 235 237 235 234 235 236 237 238 238 239 241 244 245 244 246 249 253 257 254 243 235 229 216 208 213 220 216 211 212 215 217 219 220 220 221 222 223 223 221 222 224 227 232 239 246 252 255 260 264 268 273 278 282 286 287 287 287 288 292 294 296 298 300 301 300 298 296 292
241 242 241 240 240 238 235 231 229 229 229 231 232 232 232 230 229 232 235 236 235 232 230 229 230 233 236 237 237 237 238 240 241 242 246 250 252 254 250 240 229 218 212 214 220 217 212 211 213 215 217 217 218 220 221 222 221 220 222 225 229 236 243 249 254 258 262 267 271 276 281 286 291 297 300 297 290 286 286 288 290 292 294 295 297 300 294
237 240 239 240 239 237 237 236 233 231 230 231 234 235 233 230 230 233 235 236 233 227 223 223 225 229 232 233 234 234 233 236 239 241 245 246 247 252 253 243 227 217 215 219 224 221 214 212 213 214 215 216 217 220 223 224 223 222 224 228 233 240 246 251 256 261 265 268 270 273 278 285 293 300 305 304 294 283 279 279 279 281 286 291 296 298 291
233 237 232 236 247 245 241 242 240 236 232 232 235 237 235 232 231 232 233 233 232 230 229 228 225 225 228 229 228 227 228 231 235 239 243 244 244 250 254 246 226 215 218 224 227 225 218 214 214 215 216 218 220 222 225 227 227 227 228 234 240 246 251 257 261 265 266 266 267 270 278 289 294 295 300 304 296 276 269 272 278 283 288 291 292 291 285
225 235 238 248 262 256 246 243 240 234 231 232 234 237 237 234 231 231 231 230 230 231 234 235 232 232 238 239 230 223 223 227 231 236 242 244 245 248 253 250 231 219 221 224 224 221 217 216 217 217 218 221 224 225 227 228 229 230 233 240 247 252 258 263 265 264 262 261 263 271 283 293 295 293 294 292 280 269 275 283 286 289 290 288 285 283 281
216 236 251 254 261 256 243 234 229 226 228 232 234 239 241 237 231 229 229 230 230 231 235 239 241 241 245 247 237 225 225 229 232 236 241 244 245 247 252 252 239 227 227 229 226 219 214 216 218 218 220 224 227 229 229 230 232 234 239 245 250 255 260 263 262 259 257 260 268 281 293 297 296 292 284 272 270 277 285 290 290 290 286 278 273 274 277
219 225 234 240 252 257 244 229 233 233 232 232 232 237 240 237 234 231 230 231 233 233 235 239 241 240 242 245 240 231 228 229 233 237 241 243 246 248 251 250 243 236 238 242 234 220 214 216 218 220 221 224 227 229 228 230 234 238 242 248 251 254 257 257 255 255 257 264 276 293 303 303 299 291 280 273 275 281 286 290 290 285 275 266 266 271 275
218 220 227 239 252 258 263 272 272 265 255 243 234 233 239 238 237 236 235 235 235 232 232 235 236 237 237 238 237 236 233 233 236 239 240 242 244 247 248 246 243 243 247 248 234 218 214 216 219 221 222 224 228 231 230 231 234 237 243 248 249 251 253 253 253 256 261 275 293 304 309 309 304 294 284 279 278 281 285 288 283 274 264 259 262 268 270
215 218 226 238 252 259 265 277 286 285 276 255 236 233 239 237 233 233 234 235 236 234 232 232 233 235 236 237 239 241 241 242 243 241 240 241 241 241 243 244 244 245 245 241 226 214 211 214 218 221 224 226 229 229 229 231 234 238 243 246 245 248 254 256 262 270 277 290 300 303 306 306 301 293 284 279 278 278 279 280 276 267 258 255 258 263 262
213 215 224 240 256 263 266 276 286 285 274 252 236 235 238 238 233 230 229 229 232 233 231 230 232 234 237 240 243 246 247 246 243 239 237 239 238 236 239 243 243 240 236 230 222 215 212 214 218 220 221 221 221 222 224 228 234 239 242 242 241 250 263 275 284 287 289 294 298 299 302 302 297 291 284 278 275 273 273 275 272 261 249 250 256 254 250
202 205 215 231 244 256 267 277 286 282 255 239 240 238 238 240 234 225 222 222 223 226 225 224 226 229 234 239 243 246 246 243 240 237 235 234 233 231 232 231 228 224 219 215 211 208 209 211 214 215 214 211 210 214 221 227 231 234 235 235 241 252 265 280 290 293 294 295 295 295 297 296 290 286 281 273 268 268 271 272 265 249 239 248 258 254 244
198 199 202 215 229 245 265 276 279 273 246 233 236 238 235 230 218 210 211 212 214 216 216 215 216 220 226 228 227 227 225 222 219 216 211 206 206 208 208 205 202 203 204 203 202 202 204 206 208 210 212 213 216 220 226 232 234 235 236 241 250 256 262 275 289 296 294 290 287 288 289 287 284 280 273 267 265 265 264 260 252 248 248 248 254 263 257
210 209 211 219 226 242 266 278 276 266 244 233 235 235 224 214 204 199 198 198 198 199 202 206 208 208 206 198 192 193 197 198 196 194 190 188 189 191 192 190 188 189 192 195 197 198 200 202 203 205 208 213 216 219 225 235 246 253 255 256 258 262 269 280 289 292 287 280 278 281 283 283 281 274 267 266 267 261 251 243 242 246 250 254 262 273 277
216 216 222 224 229 251 267 265 249 229 221 226 228 215 197 190 185 182 180 178 176 177 182 188 189 184 178 172 170 174 179 181 182 183 184 185 185 184 185 184 184 184 186 190 193 195 196 199 203 207 210 213 217 222 228 241 256 264 265 265 268 277 288 292 289 285 279 276 277 280 280 280 276 267 264 269 263 245 234 237 242 244 245 250 261 270 277
214 210 216 222 236 254 237 188 163 163 163 165 170 167 161 159 158 158 156 153 152 155 160 164 166 164 162 161 160 161 166 169 170 172 175 177 178 178 178 179 182 184 186 189 192 195 198 203 210 216 220 225 231 236 240 247 255 262 267 274 283 294 301 298 287 279 277 276 275 274 273 273 267 259 261 262 247 227 226 236 239 241 244 247 254 262 266
204 201 208 216 218 197 168 151 143 143 141 139 142 143 141 141 144 145 144 142 143 147 148 151 155 158 159 161 160 158 160 163 165 167 170 171 173 176 178 179 182 184 186 189 195 200 206 214 223 230 235 239 244 247 247 251 259 268 275 282 290 298 302 294 280 273 271 269 266 266 266 263 256 252 253 250 234 221 227 232 228 225 228 234 244 252 260
203 203 203 204 194 172 157 150 147 146 144 141 141 139 136 136 137 141 142 142 143 146 144 146 153 157 159 162 164 163 162 163 164 166 169 170 171 174 177 181 185 188 193 199 205 211 219 230 239 246 251 256 261 264 265 268 273 276 279 284 290 297 296 284 269 264 262 259 258 260 257 251 247 245 244 239 227 220 223 226 221 217 219 229 242 251 262
206 204 198 197 190 172 157 151 149 147 145 144 143 142 142 143 142 144 147 147 147 147 143 141 149 156 159 162 165 168 171 172 171 171 173 176 178 181 185 190 194 198 203 209 216 223 232 241 250 259 264 268 271 273 275 277 278 279 281 285 289 292 285 270 259 256 254 254 255 253 248 243 241 238 235 231 226 221 220 220 219 218 223 233 244 253 262
200 201 196 196 193 180 168 160 152 145 145 147 149 147 145 144 144 148 155 159 161 163 161 157 158 163 163 163 169 176 181 185 187 187 188 189 192 196 201 206 210 213 218 225 233 240 244 249 258 266 270 271 272 273 274 276 279 281 283 284 285 285 276 260 251 250 251 253 250 245 242 242 239 235 232 227 221 215 213 215 217 220 226 234 245 254 261
191 194 194 195 193 185 177 178 177 156 145 146 151 151 148 148 148 151 159 169 173 174 177 180 180 179 178 179 186 194 200 205 208 207 208 211 213 217 225 231 234 236 239 243 247 250 254 261 268 272 273 274 274 275 277 280 282 284 284 283 281 278 267 251 244 245 247 246 243 243 244 241 235 231 227 221 213 208 209 214 220 226 232 239 247 255 263
186 189 190 189 190 191 197 220 227 199 160 146 150 154 155 161 168 172 182 193 192 185 186 188 187 186 186 191 198 206 212 219 223 223 225 229 232 237 241 244 246 248 249 250 252 256 263 269 274 276 278 280 281 282 283 283 282 281 278 275 271 265 253 244 241 243 243 242 243 247 245 235 227 224 221 216 211 210 213 221 229 235 241 245 248 254 261
183 188 188 187 190 197 207 226 227 212 199 206 227 225 205 198 217 236 235 229 224 217 213 211 207 203 201 204 213 223 230 236 244 246 245 245 248 252 254 252 252 254 256 256 257 262 267 271 273 276 278 280 280 281 279 274 268 263 258 254 251 246 242 240 241 243 244 245 247 248 241 231 225 223 221 218 218 220 223 228 234 239 242 246 250 255 261
180 185 188 190 196 202 206 212 217 219 224 240 250 245 237 244 258 259 251 246 245 241 239 238 231 227 227 227 229 237 241 241 245 249 250 251 254 254 255 254 253 253 256 259 260 262 267 270 272 273 275 275 274 271 263 254 247 243 239 236 236 237 238 238 239 241 243 244 244 243 240 237 234 230 227 226 229 233 237 241 245 246 247 250 253 257 265
185 189 195 200 205 209 211 214 220 228 235 244 249 247 246 251 257 253 246 247 250 249 254 257 254 258 260 252 249 261 270 266 262 258 254 251 250 248 248 250 251 253 257 261 262 263 267 269 269 269 268 267 263 254 242 234 232 232 233 234 235 236 235 233 232 234 238 241 242 243 244 245 244 241 238 237 241 248 250 251 254 256 255 253 255 262 273
185 191 197 205 210 215 218 221 223 227 234 240 245 246 243 241 243 242 242 252 256 259 270 277 279 285 284 270 262 269 277 278 276 272 264 256 251 249 251 253 255 260 266 268 268 268 268 267 265 262 259 255 247 236 226 224 225 228 232 234 234 233 231 230 230 232 237 240 242 244 247 248 248 247 247 248 253 256 254 252 256 259 256 254 260 271 281
162 175 185 192 197 201 206 209 210 214 217 219 223 227 224 217 216 245 273 276 270 266 274 276 274 277 280 275 268 267 269 273 275 275 274 271 266 261 260 261 264 269 273 273 273 271 267 263 259 253 247 242 234 225 221 222 225 228 230 231 231 230 229 230 232 235 240 244 248 253 255 253 249 247 248 249 249 248 247 250 254 257 258 262 271 279 283
143 153 163 168 168 168 168 168 169 173 174 173 174 179 181 180 267 288 280 278 275 274 278 278 274 274 275 273 270 267 266 268 269 269 271 273 271 268 265 263 264 267 269 269 267 264 261 258 253 245 240 234 228 224 223 225 228 230 231 231 232 233 233 235 237 240 246 254 261 263 261 256 249 245 242 240 239 240 245 250 254 259 265 273 278 280 280
137 139 143 146 145 143 139 135 136 141 143 138 136 147 160 277 294 285 281 281 280 280 283 282 280 279 279 276 273 270 268 267 266 265 265 265 265 264 263 261 259 261 263 264 262 258 256 253 247 239 235 232 228 226 227 229 231 233 234 235 237 238 240 243 247 253 260 267 269 266 258 251 248 246 242 240 240 243 248 254 260 267 274 278 278 278 278
128 125 124 129 136 139 132 116 98 95 99 92 81 102 293 294 288 284 284 282 279 278 279 280 280 280 280 279 278 275 273 272 270 269 267 266 265 264 264 263 262 262 264 264 261 257 254 249 241 236 235 234 231 229 230 232 234 236 238 240 242 244 246 249 254 261 267 271 272 269 262 253 246 242 240 242 245 248 254 261 266 271 273 274 274 275 277
113 106 97 91 92 93 81 55 29 17 7 350 334 322 308 296 290 289 286 283 282 282 282 283 284 284 283 284 285 283 282 282 280 278 276 274 272 270 267 266 265 264 265 265 262 257 252 244 235 232 233 235 234 232 234 237 240 240 241 242 243 244 247 251 257 265 272 277 283 285 278 267 256 246 240 241 248 255 260 263 266 268 270 271 272 275 278
98 90 75 59 52 46 32 13 358 349 341 331 322 314 307 302 300 298 295 292 293 293 292 293 294 293 291 291 291 290 289 289 287 285 283 280 277 274 270 267 264 262 262 261 257 252 246 238 231 227 228 231 233 234 237 241 243 244 245 245 245 246 249 252 259 269 277 283 289 290 284 276 267 257 248 246 253 260 263 263 265 270 275 277 279 281 284
89 77 60 42 28 17 4 348 336 328 321 317 315 311 308 306 305 304 304 304 304 304 305 305 304 302 301 300 297 296 294 292 289 288 286 283 281 278 273 268 264 260 257 254 249 244 239 234 229 224 223 225 229 233 238 241 243 244 246 247 248 251 255 259 267 278 284 285 286 285 280 275 269 262 256 254 256 259 261 265 270 277 282 284 285 285 286
100 84 54 20 357 345 334 324 319 316 312 310 308 304 301 300 299 300 303 306 307 308 308 307 304 303 302 300 298 296 295 293 292 291 288 286 284 281 276 270 262 255 249 245 242 238 234 230 226 222 220 220 223 229 235 238 238 238 242 246 250 254 259 265 276 286 288 285 283 282 279 274 268 262 260 259 257 256 260 268 275 281 285 286 285 285 284
94 86 44 354 337 330 324 319 317 316 313 310 306 302 302 302 302 305 310 311 312 313 313 311 309 308 305 303 305 307 308 308 308 307 304 301 297 288 277 266 252 239 231 227 226 225 223 220 219 219 218 218 220 225 232 235 237 240 244 247 250 254 259 266 277 284 284 279 278 279 277 272 265 259 255 253 253 255 262 270 276 280 282 281 279 278 278
52 44 28 6 346 334 326 320 318 319 321 323 324 327 335 340 343 350 357 359 359 3 5 1 357 358 358 355 354 358 359 356 353 354 354 348 337 316 264 229 215 212 212 211 212 213 214 213 215 217 217 217 219 223 227 232 238 243 249 253 256 261 268 274 280 283 280 275 272 272 269 263 257 253 252 255 258 263 268 272 274 276 276 274 273 274 276
40 37 34 27 16 4 353 344 343 344 348 355 2 10 19 28 34 37 41 43 42 43 43 38 30 29 31 30 30 33 32 24 17 18 23 23 25 29 33 188 190 194 205 210 209 207 208 210 214 218 221 222 224 226 230 234 240 245 252 258 262 266 271 275 276 277 276 272 268 264 260 256 256 257 260 262 264 266 267 269 269 269 270 269 269 270 271
49 47 45 41 38 34 27 21 21 21 23 29 34 37 38 40 41 41 45 49 49 48 47 41 32 28 28 29 33 38 40 38 35 38 48 59 55 40 32 61 149 170 195 207 208 206 207 209 214 220 224 227 230 233 236 240 244 248 255 261 262 261 261 261 259 260 263 266 266 263 261 261 261 262 262 262 263 264 265 265 265 265 265 265 266 266 266
58 56 54 52 50 47 43 41 40 40 42 48 47 39 34 32 31 34 40 45 46 43 39 37 39 42 42 43 46 50 54 57 59 62 70 87 99 93 86 93 105 124 160 187 197 201 203 205 210 216 220 223 227 232 237 240 244 247 252 256 255 250 246 245 247 253 260 263 264 263 262 261 260 260 261 261 262 262 262 261 260 261 263 265 268 270 270
59 56 53 51 50 47 45 47 48 48 48 47 40 33 31 31 32 37 42 43 44 43 38 34 39 47 52 52 52 52 53 54 54 52 52 58 69 79 90 100 105 111 123 143 167 193 203 207 213 221 225 228 233 236 238 241 244 247 249 251 250 248 247 248 252 257 261 262 260 258 258 258 258 258 259 259 259 259 259 259 260 263 268 272 276 278 279
55 50 45 41 39 37 37 40 41 41 41 39 36 36 36 36 36 38 38 36 38 42 43 40 39 44 52 56 54 52 50 47 43 40 36 34 37 45 58 74 87 97 108 122 143 185 209 214 219 226 230 235 239 240 240 241 244 247 250 252 253 253 254 255 257 258 259 258 256 254 254 255 254 253 253 255 256 259 263 265 268 271 274 277 279 279 279
51 46 41 38 31 25 23 25 26 26 27 25 21 18 18 20 20 19 19 21 25 30 37 38 35 35 43 52 47 36 31 28 25 26 34 27 5 359 17 40 56 63 100 140 178 212 231 234 235 235 235 237 240 241 243 245 247 250 252 254 255 255 256 255 254 254 254 253 252 252 252 253 253 253 255 258 261 265 268 271 274 276 277 277 277 276 274
48 43 42 40 33 25 24 26 21 12 4 359 352 345 345 349 350 348 351 358 3 8 14 17 15 17 22 25 17 11 8 2 353 342 330 315 299 299 306 306 291 289 300 272 236 245 251 253 252 249 246 245 245 245 247 249 250 251 253 254 254 255 255 253 252 251 250 250 251 252 252 254 256 258 261 264 268 271 274 276 277 278 277 275 273 273 273
46 41 38 36 34 31 28 23 17 8 1 358 355 347 345 343 338 336 341 342 336 332 336 335 331 334 340 338 336 337 337 331 326 320 314 310 305 304 305 300 291 288 289 274 259 258 260 261 262 261 258 254 252 250 250 252 252 253 254 254 253 253 253 252 251 251 250 250 252 254 256 259 263 267 271 274 276 277 278 279 279 279 278 275 273 273 274
39 37 35 33 33 30 23 16 14 13 10 3 351 338 337 340 336 334 338 337 330 331 337 329 315 307 305 308 307 302 292 287 284 283 285 289 289 288 289 288 286 288 289 285 277 273 270 268 266 263 261 260 258 254 252 252 253 254 255 255 254 255 256 256 256 257 257 258 260 262 264 268 272 274 276 278 279 279 279 280 280 281 280 279 277 276 277
31 32 33 31 27 23 22 24 19 6 1 358 345 332 339 357 357 346 343 347 352 2 10 359 340 327 322 322 321 314 301 292 289 287 287 287 285 283 283 282 281 282 282 280 277 276 276 275 272 266 261 261 261 259 257 255 255 256 258 259 260 262 263 264 264 265 265 265 267 269 270 272 275 276 277 278 279 279 280 280 281 281 280 280 279 279 279
24 25 26 24 18 12 15 20 14 355 354 2 357 350 1 21 17 357 351 358 7 13 16 10 355 345 341 340 335 323 307 299 296 293 291 290 289 287 287 285 283 282 281 278 275 272 271 273 274 273 269 266 265 266 266 265 264 263 263 264 265 267 268 268 268 269 269 269 270 272 272 274 276 276 276 276 277 277 278 279 279 280 281 281 281 281 280
18 18 16 14 9 4 2 2 359 351 351 358 360 357 2 18 18 352 334 335 351 1 1 358 354 349 340 332 329 326 319 314 309 302 298 294 290 287 287 289 290 290 289 287 286 283 279 276 275 275 273 271 268 268 270 272 273 274 275 274 273 272 272 271 271 271 271 270 270 271 272 273 273 273 273 273 273 273 275 277 278 278 280 282 283 283 282
16 12 6 0 356 351 350 353 353 349 342 339 338 333 329 341 1 348 322 311 318 330 329 326 334 336 320 302 303 311 315 314 309 305 303 300 296 291 288 286 284 284 285 286 288 288 287 285 283 281 278 274 268 265 265 268 272 276 279 280 280 278 276 275 273 272 272 272 272 273 272 271 270 270 272 273 274 276 278 280 281 280 280 281 282 284 285
Height
3065 3068 3069 3070 3071 3071 3072 3073 3073 3075 3077 3078 3078 3075 3077 3082 3081 3079 3085 3090 3090 3093 3098 3099 3100 3103 3105 3107 3110 3111 3113 3114 3114 3113 3114 3116 3118 3118 3119 3119 3120 3121 3123 3124 3126 3127 3129 3131 3132 3134 3136 3138 3140 3142 3145 3148 3151 3153 3155 3155 3157 3159 3159 3158 3156 3156 3157 3158 3161 3161 3160 3159 3162 3166 3167 3166 3166 3165 3161 3159 3158 3158 3157 3156 3156 3156 3155
3063 3065 3065 3067 3067 3067 3069 3070 3070 3072 3073 3073 3074 3074 3076 3079 3077 3078 3084 3085 3085 3089 3094 3095 3098 3100 3102 3104 3106 3108 3110 3111 3111 3110 3110 3112 3114 3115 3116 3117 3118 3119 3121 3122 3124 3125 3127 3128 3130 3132 3134 3135 3137 3140 3143 3146 3148 3150 3151 3152 3153 3153 3152 3151 3151 3152 3152 3153 3156 3157 3156 3154 3155 3158 3160 3159 3158 3157 3155 3154 3154 3153 3153 3152 3152 3153 3152
3059 3060 3062 3063 3063 3063 3064 3065 3067 3068 3069 3069 3070 3070 3073 3075 3074 3077 3081 3080 3080 3085 3089 3091 3094 3097 3099 3101 3102 3104 3106 3108 3108 3106 3106 3108 3110 3111 3113 3115 3115 3117 3118 3120 3121 3122 3124 3126 3128 3130 3131 3133 3135 3138 3140 3142 3144 3146 3147 3148 3149 3148 3146 3147 3148 3149 3149 3150 3151 3153 3154 3152 3151 3151 3152 3152 3152 3152 3152 3151 3151 3151 3150 3149 3149 3149 3148
3054 3056 3058 3058 3059 3060 3059 3059 3061 3063 3064 3064 3065 3066 3068 3069 3070 3073 3075 3073 3074 3080 3086 3087 3089 3092 3094 3096 3098 3100 3102 3104 3104 3103 3103 3105 3105 3106 3109 3111 3112 3114 3115 3117 3119 3120 3122 3123 3125 3127 3129 3131 3133 3135 3137 3138 3140 3142 3143 3144 3144 3143 3142 3143 3145 3146 3146 3146 3147 3149 3150 3149 3148 3148 3148 3147 3147 3148 3148 3148 3148 3148 3147 3146 3146 3145 3144
3051 3053 3054 3054 3057 3055 3051 3051 3055 3058 3059 3060 3061 3062 3063 3064 3066 3068 3067 3067 3071 3078 3081 3081 3084 3086 3088 3090 3093 3096 3097 3099 3100 3099 3100 3101 3101 3102 3105 3107 3109 3110 3111 3113 3115 3117 3118 3120 3122 3124 3126 3127 3129 3131 3133 3134 3136 3138 3139 3139 3139 3139 3139 3140 3141 3141 3142 3142 3142 3143 3143 3143 3143 3144 3144 3144 3144 3144 3144 3144 3144 3143 3142 3142 3141 3140 3140
3050 3052 3052 3053 3053 3048 3044 3047 3052 3053 3054 3056 3057 3057 3058 3061 3062 3063 3063 3065 3069 3073 3074 3076 3078 3081 3083 3085 3087 3090 3092 3094 3095 3095 3097 3097 3096 3097 3100 3103 3105 3106 3108 3109 3111 3113 3115 3117 3119 3120 3122 3124 3126 3128 3129 3131 3132 3134 3135 3135 3135 3135 3136 3137 3137 3137 3138 3138 3138 3138 3137 3137 3137 3138 3139 3139 3140 3140 3139 3139 3139 3138 3138 3138 3137 3136 3136
3049 3050 3051 3051 3048 3044 3044 3047 3048 3049 3050 3052 3053 3053 3055 3057 3059 3060 3062 3064 3066 3068 3070 3072 3074 3076 3078 3080 3081 3084 3087 3088 3090 3091 3092 3093 3093 3092 3095 3098 3100 3102 3104 3107 3108 3110 3112 3113 3115 3117 3119 3121 3123 3124 3126 3127 3128 3129 3130 3130 3131 3132 3133 3133 3134 3133 3133 3134 3134 3133 3132 3132 3132 3133 3134 3135 3136 3136 3136 3136 3135 3135 3134 3134 3133 3132 3132
3047 3048 3049 3047 3044 3043 3045 3045 3045 3047 3048 3049 3050 3049 3049 3052 3055 3056 3059 3061 3063 3066 3067 3068 3069 3071 3073 3075 3076 3078 3081 3083 3085 3086 3087 3088 3089 3089 3091 3094 3096 3098 3100 3103 3104 3106 3108 3110 3111 3113 3116 3118 3119 3121 3122 3123 3124 3125 3126 3127 3127 3128 3129 3130 3130 3130 3130 3130 3129 3129 3128 3128 3128 3130 3130 3131 3132 3133 3133 3133 3132 3131 3131 3130 3129 3128 3127
3044 3044 3044 3044 3043 3042 3043 3043 3043 3044 3045 3045 3046 3044 3045 3048 3051 3052 3055 3058 3060 3063 3064 3064 3065 3067 3069 3070 3071 3073 3075 3077 3080 3081 3083 3084 3085 3086 3087 3090 3093 3095 3096 3098 3100 3102 3105 3106 3108 3110 3112 3114 3115 3117 3118 3120 3121 3122 3123 3123 3124 3124 3124 3125 3125 3126 3126 3126 3126 3125 3125 3125 3126 3127 3128 3128 3129 3129 3130 3129 3129 3128 3127 3125 3124 3124 3123
3042 3042 3042 3043 3042 3039 3039 3040 3040 3041 3042 3042 3043 3043 3042 3044 3047 3048 3051 3054 3056 3059 3060 3060 3062 3064 3065 3065 3066 3068 3070 3073 3075 3077 3078 3079 3081 3083 3084 3086 3089 3092 3093 3094 3097 3099 3101 3103 3104 3106 3108 3110 3112 3113 3114 3116 3117 3119 3120 3120 3119 3119 3120 3120 3121 3122 3122 3123 3123 3122 3122 3123 3124 3125 3125 3125 3125 3126 3126 3125 3125 3123 3122 3121 3120 3120 3120
3038 3039 3039 3040 3040 3038 3038 3038 3038 3039 3040 3040 3042 3041 3038 3039 3043 3045 3047 3050 3052 3054 3055 3056 3058 3060 3061 3062 3062 3063 3065 3069 3071 3073 3074 3075 3077 3079 3080 3082 3085 3088 3089 3091 3093 3095 3097 3099 3100 3102 3104 3105 3107 3108 3109 3111 3113 3115 3116 3116 3115 3115 3116 3116 3117 3118 3118 3119 3120 3120 3120 3121 3121 3122 3122 3122 3121 3121 3121 3121 3120 3119 3118 3117 3116 3117 3116
3034 3035 3035 3037 3038 3038 3037 3037 3037 3038 3038 3039 3040 3036 3033 3035 3038 3040 3043 3046 3047 3049 3052 3053 3054 3055 3057 3059 3059 3059 3062 3065 3066 3068 3070 3071 3073 3075 3076 3078 3082 3084 3085 3087 3089 3091 3093 3094 3097 3098 3100 3101 3102 3104 3105 3107 3109 3110 3111 3112 3112 3112 3113 3113 3113 3114 3115 3116 3117 3117 3117 3118 3118 3118 3118 3118 3117 3116 3116 3116 3116 3116 3115 3114 3113 3113 3113
3031 3032 3032 3033 3035 3035 3035 3036 3036 3036 3037 3037 3035 3032 3031 3033 3034 3035 3039 3042 3043 3046 3048 3049 3049 3051 3053 3055 3055 3056 3059 3060 3061 3063 3065 3066 3069 3071 3072 3074 3078 3080 3081 3083 3085 3086 3089 3091 3093 3095 3096 3097 3098 3100 3102 3104 3105 3105 3107 3109 3109 3109 3110 3110 3110 3112 3113 3114 3114 3114 3115 3115 3115 3115 3114 3114 3113 3112 3112 3112 3112 3112 3111 3110 3110 3110 3110
3028 3029 3029 3031 3031 3031 3032 3035 3035 3035 3035 3034 3030 3029 3030 3031 3031 3032 3035 3037 3039 3042 3043 3044 3046 3048 3050 3052 3052 3053 3055 3056 3057 3058 3060 3062 3064 3066 3069 3071 3074 3076 3078 3080 3081 3083 3085 3087 3089 3090 3092 3092 3094 3096 3099 3101 3102 3102 3104 3105 3106 3106 3106 3107 3108 3110 3111 3110 3110 3111 3111 3111 3111 3110 3110 3110 3109 3108 3108 3109 3108 3108 3107 3107 3107 3107 3107
3024 3026 3027 3027 3026 3026 3030 3033 3033 3033 3032 3030 3027 3027 3028 3028 3029 3030 3030 3032 3034 3036 3038 3040 3043 3044 3046 3047 3048 3049 3051 3052 3053 3055 3057 3059 3061 3063 3066 3068 3070 3072 3074 3076 3078 3080 3081 3083 3085 3086 3087 3088 3091 3094 3097 3099 3100 3100 3100 3101 3102 3103 3104 3105 3106 3107 3107 3106 3106 3107 3108 3108 3107 3106 3106 3106 3105 3105 3105 3105 3104 3104 3104 3105 3105 3105 3105
3019 3020 3020 3020 3021 3024 3028 3030 3030 3030 3028 3027 3027 3027 3026 3026 3027 3027 3027 3028 3030 3032 3034 3037 3039 3040 3042 3043 3044 3046 3048 3049 3051 3052 3054 3056 3058 3061 3063 3065 3067 3069 3071 3073 3075 3077 3078 3081 3083 3085 3086 3087 3089 3092 3095 3098 3099 3099 3098 3098 3100 3101 3102 3102 3102 3103 3103 3103 3102 3102 3103 3103 3103 3102 3102 3102 3102 3102 3102 3101 3101 3101 3102 3102 3102 3102 3103
3013 3015 3015 3016 3018 3022 3025 3027 3027 3027 3026 3025 3026 3026 3025 3025 3026 3026 3026 3026 3027 3029 3031 3033 3034 3036 3038 3040 3041 3043 3044 3046 3048 3049 3051 3053 3055 3058 3060 3062 3064 3067 3069 3071 3074 3075 3078 3080 3082 3083 3084 3085 3086 3088 3091 3094 3097 3098 3098 3098 3098 3098 3098 3099 3099 3099 3100 3099 3098 3098 3099 3099 3099 3099 3099 3099 3099 3099 3099 3099 3099 3099 3099 3099 3099 3100 3100
3010 3013 3013 3014 3016 3020 3023 3025 3024 3023 3023 3024 3024 3024 3024 3025 3026 3026 3026 3027 3028 3030 3031 3031 3031 3033 3035 3037 3040 3041 3043 3045 3046 3048 3049 3051 3054 3056 3058 3060 3062 3065 3068 3070 3072 3074 3077 3079 3080 3082 3083 3084 3085 3086 3088 3090 3094 3096 3096 3095 3095 3094 3094 3094 3095 3095 3095 3095 3094 3094 3095 3096 3096 3096 3096 3096 3096 3096 3097 3097 3096 3097 3097 3097 3097 3098 3098
3009 3011 3010 3012 3015 3018 3022 3024 3023 3022 3022 3023 3024 3025 3025 3026 3026 3026 3027 3029 3030 3032 3033 3032 3031 3032 3034 3036 3038 3041 3043 3045 3047 3048 3050 3052 3054 3056 3058 3060 3061 3064 3066 3069 3071 3073 3076 3078 3080 3081 3082 3084 3085 3087 3087 3088 3091 3092 3092 3090 3089 3089 3089 3089 3090 3090 3091 3091 3091 3091 3092 3092 3092 3092 3093 3093 3094 3094 3095 3095 3095 3095 3095 3095 3096 3096 3097
3008 3009 3008 3010 3014 3017 3019 3021 3022 3021 3021 3021 3022 3024 3026 3027 3027 3028 3029 3031 3033 3034 3034 3033 3032 3033 3034 3036 3039 3042 3045 3046 3048 3049 3051 3052 3054 3056 3058 3060 3061 3063 3066 3068 3071 3073 3075 3078 3079 3081 3082 3083 3083 3084 3085 3085 3086 3086 3086 3085 3085 3085 3085 3086 3086 3086 3087 3087 3088 3088 3089 3089 3088 3089 3090 3091 3091 3092 3092 3093 3093 3093 3093 3094 3094 3095 3095
3006 3006 3006 3009 3014 3018 3019 3019 3019 3020 3020 3021 3021 3022 3024 3026 3028 3030 3031 3033 3034 3034 3034 3034 3034 3035 3036 3037 3040 3044 3046 3048 3049 3050 3051 3053 3054 3056 3058 3059 3061 3064 3066 3068 3070 3072 3074 3076 3078 3078 3079 3080 3080 3080 3080 3080 3080 3081 3080 3080 3081 3081 3082 3083 3083 3083 3083 3084 3084 3085 3085 3085 3085 3085 3086 3087 3088 3089 3090 3090 3090 3090 3091 3091 3092 3092 3092
3004 3004 3005 3008 3013 3018 3019 3019 3019 3018 3019 3020 3021 3022 3023 3025 3028 3030 3033 3034 3035 3035 3035 3035 3037 3038 3039 3039 3041 3044 3048 3050 3050 3051 3052 3053 3054 3056 3057 3058 3061 3063 3065 3066 3068 3070 3072 3074 3075 3075 3076 3076 3076 3076 3076 3076 3076 3076 3076 3076 3077 3077 3078 3079 3079 3079 3080 3080 3081 3082 3082 3082 3083 3083 3084 3085 3085 3086 3087 3087 3087 3087 3088 3088 3089 3089 3090
3003 3004 3006 3008 3012 3016 3018 3018 3018 3018 3018 3019 3020 3021 3022 3024 3026 3029 3032 3034 3035 3036 3037 3038 3040 3041 3041 3041 3042 3045 3049 3051 3052 3052 3052 3053 3054 3055 3056 3058 3060 3062 3063 3064 3066 3068 3069 3070 3071 3072 3072 3072 3072 3072 3072 3073 3072 3072 3072 3073 3073 3074 3075 3076 3076 3077 3077 3078 3078 3079 3080 3081 3081 3080 3081 3082 3083 3084 3084 3085 3085 3085 3085 3086 3086 3087 3087
3002 3004 3006 3008 3011 3014 3016 3017 3018 3018 3017 3017 3019 3020 3022 3023 3025 3028 3032 3034 3036 3037 3038 3040 3041 3041 3041 3041 3043 3046 3048 3050 3052 3052 3052 3053 3054 3055 3056 3057 3058 3060 3061 3063 3064 3064 3065 3066 3067 3068 3068 3069 3069 3069 3069 3069 3068 3068 3069 3069 3070 3070 3071 3072 3073 3074 3075 3076 3077 3077 3078 3078 3078 3078 3079 3080 3081 3081 3082 3082 3082 3083 3083 3083 3084 3084 3085
3001 3002 3004 3007 3009 3012 3014 3016 3018 3018 3016 3016 3018 3021 3023 3024 3026 3029 3031 3034 3035 3036 3037 3038 3038 3039 3039 3040 3042 3044 3047 3049 3050 3050 3051 3052 3052 3053 3054 3055 3056 3057 3059 3060 3061 3061 3062 3063 3063 3064 3064 3065 3065 3065 3065 3065 3065 3065 3065 3066 3066 3067 3067 3069 3070 3072 3073 3074 3074 3075 3075 3075 3075 3076 3077 3077 3078 3079 3079 3080 3080 3080 3081 3081 3081 3082 3082
2999 3001 3003 3005 3007 3009 3011 3014 3017 3017 3016 3016 3018 3021 3023 3024 3026 3028 3030 3032 3034 3034 3035 3035 3036 3037 3037 3038 3040 3042 3044 3046 3047 3048 3049 3049 3049 3050 3051 3052 3053 3055 3056 3057 3058 3058 3059 3059 3060 3061 3061 3062 3062 3062 3062 3062 3062 3062 3062 3063 3063 3064 3065 3066 3068 3069 3071 3071 3072 3073 3073 3073 3074 3074 3075 3075 3076 3077 3077 3077 3077 3078 3078 3079 3079 3080 3080
2997 3000 3002 3004 3006 3008 3009 3012 3014 3016 3016 3017 3019 3021 3023 3025 3026 3027 3029 3031 3032 3032 3032 3033 3034 3035 3035 3036 3037 3039 3041 3042 3044 3045 3046 3046 3047 3049 3049 3050 3051 3053 3054 3054 3055 3055 3056 3057 3057 3057 3058 3058 3059 3059 3060 3060 3060 3060 3060 3061 3062 3062 3063 3064 3066 3067 3068 3069 3070 3070 3071 3071 3072 3072 3072 3073 3073 3074 3074 3074 3075 3075 3076 3077 3077 3077 3077
2997 2999 3001 3003 3005 3007 3009 3011 3013 3015 3017 3018 3020 3022 3023 3025 3025 3026 3028 3029 3030 3030 3030 3031 3032 3032 3033 3034 3034 3035 3037 3039 3040 3041 3042 3044 3045 3047 3047 3048 3049 3049 3050 3051 3051 3052 3053 3053 3054 3054 3054 3055 3055 3056 3057 3058 3058 3058 3059 3059 3060 3060 3061 3062 3063 3064 3066 3066 3067 3068 3068 3068 3069 3069 3069 3070 3070 3071 3071 3072 3072 3073 3073 3074 3074 3074 3075
2996 2998 3001 3003 3005 3007 3008 3010 3012 3014 3016 3018 3020 3021 3022 3024 3024 3025 3027 3028 3029 3029 3029 3030 3030 3031 3032 3032 3032 3033 3034 3035 3036 3038 3039 3041 3042 3043 3044 3045 3045 3046 3046 3047 3048 3049 3049 3050 3050 3050 3051 3052 3053 3053 3054 3055 3056 3056 3056 3056 3057 3058 3058 3059 3061 3062 3063 3063 3064 3065 3065 3066 3066 3066 3067 3067 3068 3068 3069 3069 3070 3070 3070 3071 3071 3071 3071
2996 2997 2999 3001 3004 3006 3007 3009 3011 3014 3016 3018 3020 3021 3022 3023 3024 3025 3026 3027 3028 3028 3029 3029 3030 3030 3031 3031 3032 3033 3034 3034 3035 3036 3036 3037 3039 3040 3041 3042 3042 3043 3043 3043 3044 3045 3046 3046 3047 3048 3048 3049 3050 3051 3051 3052 3053 3053 3054 3054 3055 3055 3056 3057 3058 3059 3060 3060 3061 3062 3063 3063 3064 3064 3064 3065 3065 3066 3067 3067 3068 3068 3068 3068 3067 3067 3066
2997 2998 3000 3001 3003 3005 3007 3009 3011 3013 3015 3017 3019 3020 3021 3022 3024 3025 3026 3026 3026 3027 3027 3028 3029 3029 3029 3030 3030 3031 3032 3033 3034 3034 3034 3035 3035 3036 3037 3038 3039 3039 3040 3040 3041 3042 3042 3043 3044 3045 3046 3047 3047 3048 3049 3049 3050 3050 3051 3052 3052 3052 3053 3055 3056 3057 3057 3058 3059 3059 3060 3060 3061 3061 3062 3062 3063 3063 3064 3064 3065 3065 3065 3064 3064 3063 3062
2999 3001 3002 3004 3006 3007 3008 3010 3012 3013 3014 3017 3019 3020 3021 3022 3024 3024 3025 3025 3026 3026 3026 3027 3027 3027 3028 3028 3029 3030 3030 3031 3031 3031 3031 3032 3032 3033 3034 3035 3036 3036 3036 3037 3038 3039 3039 3040 3041 3042 3043 3044 3045 3046 3046 3046 3047 3048 3049 3049 3049 3050 3051 3053 3054 3054 3055 3056 3056 3056 3057 3058 3058 3058 3059 3059 3059 3060 3060 3061 3061 3061 3061 3061 3060 3059 3059
3002 3003 3005 3006 3007 3008 3010 3011 3013 3014 3016 3018 3019 3020 3021 3023 3023 3024 3024 3024 3025 3025 3025 3025 3025 3025 3025 3026 3026 3027 3027 3028 3028 3028 3028 3028 3029 3030 3030 3031 3032 3032 3033 3034 3034 3035 3036 3037 3038 3039 3040 3041 3042 3043 3044 3044 3045 3045 3046 3046 3047 3048 3049 3051 3052 3052 3053 3053 3054 3054 3054 3055 3055 3056 3056 3056 3057 3057 3057 3058 3058 3058 3058 3057 3056 3056 3055
3004 3005 3007 3007 3008 3010 3011 3012 3013 3014 3015 3016 3018 3019 3020 3021 3022 3022 3022 3022 3022 3022 3022 3022 3022 3022 3022 3022 3023 3023 3023 3024 3024 3024 3024 3024 3025 3026 3027 3027 3028 3028 3029 3030 3031 3032 3033 3034 3035 3036 3037 3038 3040 3041 3041 3042 3042 3043 3043 3044 3044 3045 3047 3048 3049 3050 3050 3051 3051 3051 3052 3052 3052 3052 3053 3053 3054 3055 3055 3055 3055 3055 3054 3053 3053 3052 3051
3006 3007 3008 3009 3010 3011 3012 3012 3013 3014 3014 3015 3015 3016 3017 3018 3018 3019 3019 3019 3019 3019 3019 3019 3019 3019 3019 3019 3019 3019 3020 3020 3020 3020 3020 3020 3021 3021 3022 3023 3024 3025 3025 3026 3027 3028 3029 3030 3031 3032 3034 3036 3037 3038 3039 3039 3039 3040 3041 3041 3042 3043 3044 3045 3046 3046 3047 3048 3049 3049 3049 3050 3050 3050 3050 3051 3052 3052 3052 3052 3051 3051 3050 3049 3049 3048 3047
3008 3009 3009 3010 3011 3011 3012 3013 3013 3013 3014 3014 3014 3014 3015 3015 3015 3015 3015 3015 3015 3015 3015 3015 3015 3015 3015 3015 3016 3016 3016 3016 3016 3016 3016 3016 3017 3017 3018 3019 3020 3020 3021 3022 3023 3024 3025 3026 3027 3029 3030 3032 3034 3035 3036 3036 3037 3038 3039 3039 3040 3040 3041 3042 3043 3044 3045 3045 3046 3046 3046 3047 3047 3047 3048 3048 3048 3048 3047 3047 3047 3047 3047 3046 3045 3044 3044
3010 3010 3011 3011 3011 3012 3012 3012 3013 3013 3013 3013 3014 3014 3015 3015 3015 3014 3014 3013 3013 3013 3013 3013 3013 3013 3013 3013 3013 3013 3013 3013 3013 3013 3013 3013 3014 3014 3014 3015 3015 3016 3017 3018 3019 3020 3022 3023 3024 3025 3027 3029 3031 3033 3033 3034 3035 3036 3037 3037 3038 3038 3039 3039 3040 3041 3042 3042 3042 3042 3043 3043 3043 3043 3044 3043 3043 3043 3043 3043 3043 3043 3043 3042 3041 3041 3040
3009 3010 3011 3011 3011 3011 3011 3011 3011 3012 3012 3013 3013 3014 3014 3014 3013 3013 3013 3012 3012 3012 3012 3012 3012 3012 3011 3011 3011 3011 3011 3011 3011 3011 3011 3011 3011 3011 3012 3012 3012 3013 3014 3015 3015 3016 3018 3019 3021 3022 3024 3026 3028 3030 3031 3032 3033 3033 3034 3034 3035 3036 3036 3036 3037 3037 3038 3038 3038 3039 3039 3039 3039 3039 3039 3039 3039 3039 3040 3040 3040 3040 3039 3039 3039 3038 3037
3009 3009 3010 3010 3010 3010 3010 3011 3011 3011 3012 3012 3012 3012 3012 3012 3012 3011 3011 3011 3011 3012 3012 3012 3012 3011 3011 3011 3011 3010 3010 3010 3010 3010 3010 3010 3010 3010 3010 3011 3011 3011 3011 3012 3012 3013 3015 3016 3018 3020 3022 3024 3026 3028 3029 3030 3031 3031 3031 3032 3032 3033 3033 3033 3033 3034 3035 3035 3035 3036 3036 3036 3036 3036 3036 3036 3036 3036 3037 3037 3037 3036 3036 3036 3036 3035 3035
3008 3008 3009 3009 3009 3009 3010 3010 3011 3011 3011 3011 3011 3011 3011 3011 3011 3011 3011 3011 3011 3011 3012 3012 3012 3011 3011 3011 3011 3010 3010 3010 3010 3010 3010 3010 3010 3010 3010 3010 3010 3010 3011 3011 3012 3012 3013 3015 3016 3017 3019 3021 3023 3025 3026 3027 3028 3028 3029 3029 3029 3030 3030 3030 3031 3032 3032 3032 3032 3033 3033 3033 3033 3034 3034 3034 3034 3034 3034 3034 3033 3033 3033 3033 3033 3032 3032
3008 3008 3009 3009 3009 3009 3010 3010 3011 3011 3011 3011 3011 3011 3011 3011 3011 3011 3011 3011 3011 3011 3011 3011 3011 3011 3011 3011 3011 3010 3010 3011 3011 3011 3010 3010 3010 3010 3010 3010 3010 3010 3011 3011 3012 3012 3013 3013 3014 3016 3017 3019 3020 3022 3023 3024 3024 3025 3025 3026 3026 3027 3027 3027 3028 3029 3029 3029 3030 3030 3030 3030 3030 3031 3031 3031 3031 3031 3030 3030 3030 3030 3030 3030 3029 3029 3029
3009 3009 3010 3010 3010 3010 3010 3010 3011 3011 3011 3011 3011 3011 3011 3011 3011 3011 3010 3010 3010 3010 3010 3010 3010 3011 3011 3011 3011 3011 3011 3012 3012 3011 3011 3011 3010 3011 3011 3011 3011 3011 3011 3011 3012 3012 3012 3013 3014 3015 3016 3017 3018 3019 3020 3020 3021 3022 3022 3023 3023 3024 3024 3025 3025 3026 3027 3027 3027 3027 3027 3027 3028 3028 3028 3028 3028 3028 3027 3027 3027 3027 3027 3026 3026 3025 3025
3010 3011 3011 3011 3011 3011 3011 3011 3011 3011 3011 3011 3011 3011 3011 3011 3011 3011 3010 3010 3010 3009 3009 3009 3010 3010 3011 3011 3012 3012 3012 3012 3012 3012 3012 3012 3012 3012 3012 3012 3011 3011 3011 3011 3011 3012 3012 3012 3013 3014 3014 3015 3016 3017 3017 3018 3018 3019 3019 3020 3021 3021 3022 3022 3023 3023 3024 3024 3024 3024 3025 3025 3025 3025 3025 3025 3025 3024 3024 3024 3024 3024 3024 3023 3022 3021 3021
3012 3012 3011 3011 3011 3011 3012 3012 3012 3012 3012 3011 3011 3011 3011 3011 3011 3011 3010 3010 3010 3009 3009 3010 3010 3011 3011 3012 3012 3013 3013 3013 3013 3013 3013 3013 3013 3012 3012 3012 3012 3011 3011 3011 3011 3011 3011 3012 3012 3013 3013 3014 3014 3015 3015 3015 3015 3016 3016 3017 3018 3018 3019 3019 3020 3020 3020 3021 3021 3021 3022 3022 3022 3022 3022 3022 3021 3021 3021 3021 3021 3020 3020 3019 3018 3017 3017
3013 3012 3012 3012 3012 3012 3012 3012 3012 3012 3012 3012 3012 3012 3011 3011 3011 3011 3011 3010 3010 3010 3010 3010 3011 3012 3013 3013 3013 3013 3013 3013 3013 3013 3013 3013 3013 3012 3012 3012 3012 3011 3011 3011 3011 3011 3011 3011 3011 3011 3011 3012 3012 3013 3013 3013 3013 3013 3014 3014 3015 3015 3016 3016 3017 3017 3017 3018 3018 3018 3019 3019 3019 3019 3019 3018 3018 3018 3018 3017 3017 3016 3016 3015 3014 3014 3013
3014 3014 3013 3013 3013 3013 3013 3013 3013 3013 3012 3012 3012 3012 3011 3011 3011 3011 3011 3011 3010 3010 3011 3011 3012 3012 3013 3013 3014 3013 3013 3013 3013 3013 3013 3013 3013 3012 3012 3011 3011 3011 3010 3010 3010 3010 3009 3009 3009 3009 3010 3010 3010 3010 3011 3011 3011 3011 3011 3012 3012 3013 3013 3013 3014 3014 3015 3015 3015 3015 3016 3016 3016 3015 3015 3015 3015 3014 3013 3013 3013 3012 3012 3011 3011 3010 3010
3015 3015 3015 3014 3014 3014 3014 3014 3014 3013 3013 3013 3012 3012 3012 3012 3011 3011 3011 3011 3011 3011 3011 3011 3012 3012 3013 3013 3013 3013 3013 3013 3012 3012 3012 3012 3012 3011 3011 3010 3010 3009 3009 3009 3009 3008 3008 3007 3007 3007 3008 3008 3008 3009 3009 3009 3009 3009 3009 3010 3010 3010 3011 3011 3011 3012 3012 3012 3012 3012 3012 3012 3012 3012 3011 3011 3011 3010 3009 3009 3009 3008 3008 3007 3007 3006 3005
3016 3016 3016 3016 3015 3015 3015 3015 3014 3014 3014 3013 3012 3012 3012 3012 3011 3011 3011 3011 3011 3011 3011 3012 3012 3012 3012 3012 3012 3012 3012 3012 3012 3011 3011 3011 3010 3010 3009 3009 3008 3008 3007 3007 3007 3006 3005 3005 3005 3005 3006 3006 3006 3006 3006 3007 3007 3007 3007 3007 3008 3008 3008 3008 3009 3009 3009 3009 3009 3009 3009 3009 3009 3008 3008 3007 3007 3006 3006 3005 3005 3004 3004 3003 3003 3002 3002
3016 3016 3017 3017 3016 3016 3015 3015 3015 3014 3014 3013 3012 3012 3012 3012 3012 3012 3011 3011 3011 3011 3013 3013 3013 3012 3012 3013 3013 3012 3011 3011 3011 3010 3009 3009 3009 3008 3008 3007 3006 3006 3006 3005 3005 3004 3003 3003 3003 3003 3003 3003 3004 3004 3004 3004 3004 3004 3005 3005 3005 3005 3005 3006 3006 3006 3006 3006 3006 3006 3006 3006 3005 3005 3004 3004 3003 3002 3001 3001 3000 3000 3000 2999 2999 2998 2997
3017 3017 3017 3017 3017 3016 3016 3015 3015 3014 3014 3013 3012 3012 3012 3013 3013 3013 3012 3011 3012 3012 3013 3014 3014 3014 3013 3013 3013 3012 3010 3009 3009 3008 3008 3007 3007 3006 3005 3005 3004 3004 3003 3003 3003 3002 3001 3001 3000 3000 3000 3001 3001 3001 3001 3001 3001 3001 3001 3001 3002 3002 3002 3002 3002 3002 3002 3002 3002 3002 3002 3002 3002 3001 3000 3000 2999 2998 2998 2997 2996 2995 2994 2994 2994 2994 2993
3018 3018 3018 3018 3017 3017 3016 3016 3015 3014 3014 3013 3013 3012 3012 3013 3014 3014 3013 3012 3012 3013 3013 3013 3013 3013 3013 3012 3012 3010 3009 3007 3007 3006 3006 3005 3004 3004 3003 3003 3002 3001 3001 3000 3000 2999 2999 2998 2998 2997 2997 2998 2998 2998 2998 2998 2998 2998 2997 2997 2998 2998 2998 2998 2998 2998 2998 2998 2998 2998 2998 2998 2998 2997 2996 2996 2995 2994 2994 2993 2992 2991 2990 2990 2989 2989 2989
3019 3018 3018 3018 3017 3017 3016 3015 3014 3014 3014 3013 3013 3013 3012 3013 3013 3014 3012 3011 3011 3011 3011 3010 3010 3010 3010 3009 3008 3007 3007 3006 3005 3005 3004 3003 3003 3002 3001 3001 3000 2999 2999 2999 2998 2997 2996 2996 2995 2995 2995 2995 2995 2995 2995 2995 2995 2995 2995 2994 2994 2994 2994 2994 2994 2994 2994 2993 2994 2994 2994 2993 2993 2993 2992 2992 2991 2990 2990 2989 2988 2987 2986 2986 2985 2985 2985